Torna al catalogo

FENGYUN 1C DEB

AttivoSSO
NORAD 31891·DEBRIS·🇨🇳 China

Lanciato May 10, 1999 da Taiyuan Satellite Launch Center

Loading…

Prossimi Passaggi (prossime 24 ore)

TLE

In scadenzaSource: Space-Track

Epoca: Sep 9, 2026, 06:01 UTC

1 31891U 99025CKS 26252.25091015  .00000328  00000-0  37769-3 0  9995
2 31891  99.3957 264.5308 0223368 204.9485 154.0730 13.66449710961041

Traccia FENGYUN 1C DEB in tempo reale con AllMySat

Download on the App Store